User: anonymous   Login
Location: Poughquag
(41.6090°N, 73.6820°W)
Time: 05:43:42
(UTC-04:00)
Language:

Tiros 1 - Orbit

View from above orbital plane
View from above orbital plane
View from above satellite
View from above satellite

Ground track
Ground track

The orbit data is extracted from the following two-line orbital elements,

1    29U 60002B   20224.76770586 -.00000153 +00000-0 +83078-5 0  9996
2    29 048.3802 047.5712 0023675 109.4965 250.8507 14.74366165226708
Epoch (UTC): 11 August 2020 18:25:29
Eccentricity: 0.0023675
inclination: 48.3802°
perigee height: 630 km
apogee height: 664 km
right ascension of ascending node: 47.5712°
argument of perigee: 109.4965°
revolutions per day: 14.74366165
mean anomaly at epoch: 250.8507°
orbit number at epoch: 22670

The dashed part of the orbit path shows where the satellite is in the earth's shadow,  

DLR